Total_Precipitation_Accumulation
1.66 2.69 2.45 2.41 1.70 0.90 0.86 0.87 1.20 1.44 1.30 0.95 0.80 0.78 0.63 0.60 0.42 0.41 0.57 0.38 0.52 0.55 0.46 0.36 0.46 0.58 0.59 0.67 0.65 0.66 0.69 0.78 0.90 1.22 1.20 1.16 1.32 1.30 1.06 0.96 1.08 1.11 1.04
1.19 2.28 2.47 2.97 3.08 1.88 1.19 1.18 0.99 0.86 1.26 1.39 0.92 0.99 1.01 1.02 0.76 0.70 0.60 0.63 0.73 0.85 0.81 0.50 0.51 0.49 0.43 0.44 0.50 0.56 0.66 0.60 0.76 0.84 0.89 0.92 0.87 0.92 1.07 1.36 1.73 1.88 2.18
0.85 1.70 2.22 2.57 2.27 2.71 1.73 1.38 1.92 1.31 1.04 1.66 1.63 1.49 1.83 1.71 1.36 0.83 0.60 0.80 1.13 1.45 1.41 1.31 1.22 1.00 0.82 0.80 0.78 0.96 1.38 1.23 1.11 1.32 1.39 1.04 0.84 0.68 0.78 0.94 0.86 1.08 1.13
0.41 0.78 1.47 1.80 1.68 1.51 1.69 1.23 1.68 1.60 1.39 1.56 2.20 1.97 1.61 1.62 1.45 1.50 1.51 1.68 1.83 2.20 2.29 2.13 1.89 1.67 1.44 1.38 1.45 1.50 1.63 1.76 1.72 1.67 1.45 1.17 0.96 0.79 0.55 0.54 0.72 0.63 0.67
0.53 0.51 0.70 1.17 1.36 1.00 1.44 1.44 1.46 1.46 1.31 1.41 1.65 2.27 2.16 1.56 1.32 1.46 1.52 1.57 1.68 1.92 2.19 2.28 2.47 2.41 2.63 2.69 2.51 2.30 2.03 1.82 1.79 1.64 1.43 1.30 1.23 0.98 0.77 0.51 0.44 0.38 0.32
0.52 0.64 0.71 0.69 0.65 0.64 0.90 1.33 1.07 1.13 1.03 1.23 1.18 1.61 2.31 2.22 1.74 1.50 1.44 1.50 1.75 1.75 1.94 2.17 2.37 2.52 2.47 2.24 2.14 1.95 1.68 1.52 1.43 1.30 1.29 1.20 0.98 0.73 0.65 0.53 0.37 0.42 0.31
0.89 1.06 0.90 0.74 0.58 0.39 0.78 1.11 0.99 1.09 0.94 1.21 1.37 1.16 1.58 2.19 2.21 2.09 2.08 1.93 1.76 1.72 2.05 2.36 2.27 2.11 1.93 1.66 1.48 1.42 1.27 1.25 1.23 1.26 1.20 1.07 1.04 0.96 1.06 1.17 0.91 0.75 0.45
1.32 1.52 1.85 1.46 1.11 0.86 1.02 0.96 0.79 1.14 1.12 1.15 1.27 1.36 1.35 1.37 1.38 1.51 1.64 1.76 1.86 1.74 1.57 2.02 2.24 2.05 1.77 1.69 1.39 1.22 1.09 0.99 0.97 1.01 1.15 1.21 1.19 1.21 1.32 1.54 1.69 1.49 0.92
1.04 1.27 1.43 1.09 0.83 1.28 1.53 1.13 0.94 1.16 1.04 0.95 0.86 1.02 1.26 1.06 0.89 1.01 0.98 1.00 1.08 1.30 1.22 1.01 1.06 1.18 1.21 1.34 1.40 1.30 1.07 0.97 0.92 0.89 0.94 0.96 0.87 0.88 1.06 1.26 1.59 2.01 1.89
1.04 0.78 0.54 0.37 0.48 0.62 0.62 0.88 0.78 0.56 0.55 0.65 0.44 0.64 0.76 0.85 0.79 0.81 0.74 0.63 0.58 0.60 0.68 0.71 0.75 0.78 0.85 0.90 0.98 1.07 1.06 1.24 1.30 1.24 1.21 1.13 0.96 0.91 0.98 1.08 1.25 1.58 1.93
0.17 0.08 0.03 0.03 0.04 0.05 0.09 0.20 0.29 0.27 0.33 0.36 0.30 0.41 0.55 0.44 0.42 0.49 0.54 0.54 0.45 0.47 0.43 0.38 0.36 0.33 0.31 0.34 0.42 0.43 0.41 0.46 0.45 0.53 0.71 0.77 0.71 0.78 0.81 0.80 0.85 1.01 1.27
0.00 0.01 0.01 0.01 0.01 0.01 0.02 0.02 0.03 0.03 0.05 0.08 0.14 0.20 0.30 0.34 0.30 0.32 0.37 0.28 0.24 0.29 0.37 0.39 0.28 0.24 0.24 0.25 0.29 0.34 0.38 0.44 0.44 0.39 0.49 0.56 0.53 0.64 0.61 0.67 0.71 0.74 0.82
0.00 0.00 0.00 0.00 0.00 0.00 0.02 0.04 0.04 0.02 0.02 0.03 0.10 0.15 0.20 0.24 0.23 0.26 0.29 0.33 0.39 0.41 0.33 0.24 0.19 0.18 0.19 0.20 0.25 0.35 0.43 0.51 0.56 0.58 0.62 0.60 0.61 0.66 0.64 0.74 0.84 0.92 0.92
0.01 0.00 0.00 0.00 0.00 0.01 0.05 0.05 0.04 0.02 0.05 0.06 0.09 0.10 0.13 0.22 0.33 0.45 0.56 0.64 0.66 0.65 0.60 0.53 0.47 0.34 0.30 0.32 0.34 0.35 0.37 0.42 0.46 0.53 0.62 0.65 0.71 0.72 0.74 0.91 0.99 1.00 1.05
0.01 0.00 0.01 0.01 0.01 0.01 0.03 0.04 0.07 0.08 0.08 0.11 0.12 0.11 0.10 0.09 0.12 0.17 0.26 0.41 0.58 0.72 0.79 0.88 0.91 0.79 0.69 0.65 0.61 0.62 0.75 0.79 0.76 0.68 0.59 0.57 0.68 0.71 0.65 0.64 0.64 0.72 0.87
0.02 0.01 0.01 0.00 0.00 0.00 0.01 0.02 0.06 0.10 0.16 0.15 0.11 0.08 0.07 0.09 0.11 0.12 0.15 0.20 0.28 0.39 0.55 0.70 0.75 0.77 0.78 0.98 0.91 0.80 0.77 0.71 0.68 0.68 0.59 0.59 0.62 0.45 0.42 0.40 0.36 0.37 0.60
0.01 0.00 0.00 0.00 0.00 0.00 0.01 0.01 0.03 0.06 0.08 0.07 0.06 0.07 0.10 0.14 0.14 0.12 0.13 0.17 0.33 0.52 0.52 0.59 0.72 0.88 0.99 1.16 0.95 0.82 0.65 0.62 0.53 0.44 0.35 0.29 0.26 0.31 0.21 0.24 0.30 0.45 0.54
0.00 0.00 0.00 0.00 0.00 0.00 0.00 0.01 0.02 0.07 0.16 0.25 0.28 0.24 0.44 0.61 0.44 0.51 0.63 0.72 0.52 0.55 0.68 0.63 0.77 0.84 0.99 0.97 0.76 0.74 0.67 0.65 0.62 0.49 0.35 0.29 0.22 0.18 0.18 0.25 0.52 0.35 0.26
0.01 0.00 0.00 0.00 0.00 0.00 0.00 0.01 0.02 0.04 0.15 0.34 0.60 0.63 0.68 0.74 0.83 1.23 1.18 1.33 1.23 1.02 0.87 0.73 0.69 0.61 0.54 0.45 0.31 0.23 0.20 0.19 0.17 0.16 0.15 0.19 0.21 0.28 0.49 0.56 0.45 0.30 0.32
0.01 0.01 0.00 0.00 0.00 0.00 0.03 0.05 0.04 0.08 0.18 0.26 0.23 0.63 0.79 0.66 0.62 0.70 0.76 0.89 0.69 0.77 0.87 0.78 0.58 0.48 0.36 0.26 0.18 0.14 0.11 0.08 0.06 0.06 0.09 0.14 0.12 0.29 0.71 0.53 0.43 0.47 0.34
0.01 0.01 0.02 0.02 0.04 0.07 0.13 0.25 0.23 0.41 0.54 0.84 0.62 0.66 0.80 0.66 0.51 0.58 0.40 0.44 0.52 0.46 0.36 0.30 0.28 0.25 0.19 0.14 0.10 0.06 0.05 0.05 0.09 0.09 0.06 0.07 0.25 0.47 0.41 0.48 0.48 0.57 0.62
0.23 0.25 0.18 0.14 0.18 0.22 0.37 0.73 0.67 0.66 0.70 0.64 0.70 0.44 0.40 0.31 0.23 0.18 0.21 0.22 0.17 0.15 0.16 0.14 0.14 0.11 0.08 0.07 0.04 0.03 0.06 0.13 0.15 0.10 0.08 0.18 0.45 0.35 0.38 0.34 0.33 0.51 0.55
0.28 0.54 0.49 0.45 0.55 0.41 0.44 0.59 0.47 0.29 0.15 0.18 0.14 0.07 0.04 0.05 0.05 0.06 0.08 0.12 0.16 0.18 0.18 0.15 0.13 0.10 0.07 0.03 0.02 0.02 0.09 0.14 0.17 0.15 0.31 0.39 0.33 0.30 0.31 0.31 0.35 0.40 0.33
0.01 0.02 0.02 0.06 0.15 0.15 0.14 0.18 0.12 0.07 0.06 0.07 0.07 0.09 0.12 0.13 0.09 0.13 0.20 0.23 0.24 0.24 0.21 0.21 0.18 0.13 0.10 0.06 0.04 0.10 0.14 0.17 0.21 0.25 0.26 0.21 0.25 0.32 0.32 0.39 0.42 0.39 0.31
0.04 0.04 0.05 0.04 0.03 0.01 0.01 0.01 0.01 0.04 0.08 0.14 0.21 0.25 0.27 0.28 0.23 0.25 0.31 0.37 0.37 0.34 0.32 0.32 0.33 0.32 0.27 0.15 0.25 0.33 0.38 0.40 0.39 0.39 0.24 0.28 0.26 0.22 0.26 0.28 0.28 0.27 0.37
0.07 0.07 0.07 0.08 0.11 0.14 0.11 0.09 0.08 0.10 0.14 0.21 0.26 0.35 0.41 0.46 0.57 0.72 0.78 0.71 0.56 0.51 0.46 0.48 0.48 0.40 0.40 0.39 0.42 0.47 0.58 0.57 0.58 0.60 0.34 0.24 0.24 0.27 0.21 0.20 0.27 0.32 0.46